weather.gov     
National Weather Service

Regional Weather Roundup
NWS Homepage
This page is being discontinued on March 12, 2014.
The same data is available at this site. Please update your bookmarks.
Thank you, and we apologize for the inconvenience.
Please send an email to SR-SRH.Webmaster@noaa.gov with any concerns.


Current Version
Previous Version:    01  02  03  04  05  06  07  08  09  10  11  12  13  14  15  16  17  18  19  20  21  22  23  24  25  26  
[Printable]
851
ASUS42 KTBW 302310
RWRFL
FLORIDA REGIONAL WEATHER ROUNDUP
NATIONAL WEATHER SERVICE TAMPA BAY RUSKIN FL
600 PM EST FRI JAN 30 2015

NOTE: "FAIR" INDICATES FEW OR NO CLOUDS BELOW 12,000 FEET WITH NO
SIGNIFICANT WEATHER AND/OR OBSTRUCTIONS TO VISIBILITY.


FLZ001>010-012>015-112-114-115-310000-
PANHANDLE FLORIDA

CITY           SKY/WX    TMP DP  RH WIND       PRES   REMARKS
PENSACOLA      MOCLDY    59  30  33 N8        30.27S
PENSACOLA NAS  MOCLDY    59  30  33 N7        30.27S
MILTON NAS     MOCLDY    56  30  37 N9        30.28S
CRESTVIEW      MOCLDY    57  30  35 N5        30.29S
DUKE FIELD     CLOUDY    57  28  32 N9        30.27R
VALPARAISO     CLOUDY    59  31  35 N8        30.27R
MARY ESTHER    MOCLDY    58  28  31 N7        30.26R
TRI COUNTY     FAIR      55  31  39 NW6       30.28R
PANAMA CITY    FAIR      56  36  47 N6        30.25R
TYNDALL AFB    MOCLDY    59  32  36 N7        30.26R
APALACHICOLA   MOCLDY    62  34  35 N3        30.23R

STATION/POSITION SKY/WX   TEMP    WIND        PRES    WAVE   SWELL
                          AIR SEA DIR/SP/G            HT/PER HT/PER
                          (F)     (DEG/KT/KT) (MB)    (FT/S) (FT/S)
30.1N   87.6W              61 63   10/ 12/ 14 1024.6S   1/ 3
29.2N   88.2W              56 69   20/ 14/ 17 1026.0R   4/ 6
28.7N   86.0W              60 69   20/ 16/ 19 1024.0R   5/ 6
PANAMA CITY BEAC           59 61   10/  6/  8 1024.3R
CAPE SAN BLAS    NOT AVBL
TOWER C                    59     340/  8/  9 1023.6R
28.5N   84.5W              62 67   10/ 16/ 19 1022.7S   5/ 5

$$
FLZ011-016>038-118-127-128-134-139-239-310000-
NORTH FLORIDA

CITY           SKY/WX    TMP DP  RH WIND       PRES   REMARKS
MARIANNA       MOCLDY    56  31  38 N6        30.26R
TALLAHASSEE    MOCLDY    59  29  31 N7        30.24R
PERRY          MOCLDY    58  30  33 N6        30.23R
CROSS CITY       N/A     60  31  33 N6        30.20R
LAKE CITY      FAIR      55  30  38 N3        30.20R
GAINESVILLE    MOCLDY    59  36  42 N5        30.19R
MAYPORT NAS    MOCLDY    59  34  39 NW7       30.18R
JACKSONVILLE   MOCLDY    56  30  37 N5        30.19R
JAX NAS        MOCLDY    63  30  28 NW7       30.19R
JAX CRAIG      CLEAR     60  30  32 N9        30.18R
JAX CECIL      CLEAR     57  28  33 CALM      30.19R
FERNANDINA BEA FAIR      63  30  29 NW8       30.18R
ST AUGUSTINE   PTCLDY    57  49  74 N3        30.19R

STATION/POSITION SKY/WX   TEMP    WIND        PRES    WAVE   SWELL
                          AIR SEA DIR/SP/G            HT/PER HT/PER
                          (F)     (DEG/KT/KT) (MB)    (FT/S) (FT/S)
SHELL POINT                62      10/  8/ 11   N/A
KEATON BEACH               60     350/  5/  7 1023.3R
CEDAR KEY                  65     360/  3/  5 1022.3R
FERNANDINA                 59 55  330/  9/ 13 1021.8R
30.7N   81.3W                 57                N/A     2/13
MAYPORT                    60 58  340/  6/  9 1022.1R
31.4N   80.9W              55 54  340/ 10/ 12 1021.9R   2/11   2/11
ST AUGUSTINE               58      10/  8/  9 1022.4R

$$
FLZ040-043>046-052-053-057-058-063-144-310000-
INTERIOR CENTRAL FLORIDA

CITY           SKY/WX    TMP DP  RH WIND       PRES   REMARKS
OCALA          CLEAR     63  39  42 N6        30.18R
THE VILLAGES     N/A     64  39  39 NW5       30.07R
LEESBURG       MOCLDY    63  44  50 N6        30.17R
SANFORD        MOCLDY    66  44  45 N7        30.16R
ORLANDO EXEC   MOCLDY    69  47  45 N7        30.15R
ORLANDO INTL   MOCLDY    67  50  54 N9        30.15R
KISSIMMEE      CLOUDY    68  54  60 NW5       30.15R
WINTER HAVEN   PTCLDY    67  55  65 N3        30.16R
LAKELAND       CLEAR     66  50  55 NW7       30.16R
BARTOW         FAIR      66  54  63 NW5       30.16R
OKEECHOBEE     CLEAR     68  55  64 CALM      30.14R

$$
FLZ041-047-054-059-064-141-147-310000-
EAST CENTRAL FLORIDA

CITY           SKY/WX    TMP DP  RH WIND       PRES   REMARKS
ORMOND BEACH   CLEAR     57  50  77 CALM      30.17R
DAYTONA BEACH  MOCLDY    61  50  67 N9        30.17R
DELAND         MOCLDY   N/A N/A N/A N3        30.17R
NEW SMYRNA BEA CLEAR     59  50  72 N12         N/A
JFK SPACE CTR  MOCLDY    61  54  78 N6        30.15R
TITUSVILLE     MOCLDY    61  55  82 N10       30.16R
CAPE CANAVERAL MOCLDY    62  56  81 N7        30.15R
PATRICK AFB    MOCLDY    63  58  81 NE15      30.15R
MELBOURNE      MOCLDY    64  57  78 N12       30.14R
VERO BEACH     PTCLDY    66  58  75 N6        30.14R
FT PIERCE      PTCLDY    67  58  72 NE6       30.13R
STUART         PTCLDY    68  52  56 CALM      30.14R

STATION/POSITION SKY/WX   TEMP    WIND        PRES    WAVE   SWELL
                          AIR SEA DIR/SP/G            HT/PER HT/PER
                          (F)     (DEG/KT/KT) (MB)    (FT/S) (FT/S)
28.5N   80.2W              64 68  350/ 16/ 17 1020.5R
28.9N   78.5W              67 73  320/ 19/ 23 1019.4R   7/ 6   2/11
TRIDENT PIER     NOT AVBL
28.4N   80.5W                 62                N/A     2/11
27.6N   80.2W                 71                N/A     2/ 9   2/12

$$
FLZ050-056-061-142-242-148-248-149-249-151-251-155-255-
160-260-310000-
WEST CENTRAL FLORIDA

CITY           SKY/WX    TMP DP  RH WIND       PRES   REMARKS
CRYSTAL RIVER  FAIR      63  41  45 N3        30.18R
INVERNESS      FAIR      63  37  39 N5        30.18R
BROOKSVILLE    MOCLDY    59  52  77 NW6       30.18R
ZEPHYRHILLS    FAIR      64  52  63 NW8       30.17R
CLEARWATER     MOCLDY    59  54  83 NW10      30.17R
TAMPA INTL     MOCLDY    62  53  72 NW8       30.17R
TAMPA EXEC     PTCLDY    64  46  52 NW6       30.16S
PLANT CITY       N/A    N/A N/A N/A MISG        N/A
MACDILL AFB    PTCLDY    62  58  87 NW7       30.17R
PETER O KNIGHT PTCLDY    68  52  56 NW7       30.17R
ST PETERSBURG  MOCLDY    63  53  70 N12       30.15R
SARASOTA       MOCLDY    63  57  81 NW9       30.15R
VENICE         FAIR      64  61  88 SW3       30.16F

STATION/POSITION SKY/WX   TEMP    WIND        PRES    WAVE   SWELL
                          AIR SEA DIR/SP/G            HT/PER HT/PER
                          (F)     (DEG/KT/KT) (MB)    (FT/S) (FT/S)
CEDAR KEY                  65     360/  3/  5 1022.3R
28.5N   84.5W              62 67   10/ 16/ 19 1022.7S   5/ 5
27.3N   84.3W                 72                N/A     3/ 4
CLEARWATER BEACH           60 61  340/ 12/ 13 1021.6R
MIDDLE TAMPA BAY           65     340/  9/ 10 1021.4R
VENICE                     64 65  200/  2/  2 1020.7F

$$
FLZ066-069-070-075>078-162-262-165-265-310000-
SOUTHWEST FLORIDA AND KEYS

CITY           SKY/WX    TMP DP  RH WIND       PRES   REMARKS
PUNTA GORDA    PTCLDY    66  57  72 W8        30.17R
FT MYERS       PTCLDY    67  56  67 NW8       30.15R
SOUTHWEST INTL PTCLDY    67  56  67 NW5       30.15R
NAPLES         PTCLDY    66  58  75 NW8       30.16R
MARCO ISLAND   PTCLDY    66  55  68 NW8       30.16R
IMMOKALEE      PTCLDY   N/A N/A N/A W5        30.15R
MARATHON       CLEAR     66  57  72 NW8       30.15R
KEY WEST NAS   MOCLDY    67  54  63 N12       30.16R
KEY WEST INTL  CLEAR     68  56  65 N10       30.16S

STATION/POSITION SKY/WX   TEMP    WIND        PRES    WAVE   SWELL
                          AIR SEA DIR/SP/G            HT/PER HT/PER
                          (F)     (DEG/KT/KT) (MB)    (FT/S) (FT/S)
VENICE                     64 65  200/  2/  2 1020.7F
NAPLES                     65     310/ 11/ 12 1021.7S
26.0N   85.6W              70 73  330/  8/ 10 1021.6F   1/ 6   2/ 6
DRY TORTUGAS               67      10/ 10/ 11 1021.2R
NW FL BAY                  67     330/ 11/ 13 1020.9R
SAND KEY                   67     360/ 16/ 18 1021.2R
SOMBRERO KEY               67     340/ 12/ 13 1021.5R
LONG KEY                   67 67  320/ 12/ 13 1021.4R
MOLASSES REEF              69 76  290/ 10/ 11 1020.5R

$$
FLZ067-068-071>074-168-172>174-310000-
SOUTHEAST FLORIDA

CITY           SKY/WX    TMP DP  RH WIND       PRES   REMARKS
W PALM BEACH   MOCLDY    69  48  47 W6        30.13R
FT LAUDER-EXEC PTCLDY    72  46  39 N6        30.13R
FT LAUDERDALE  MOCLDY    70  50  49 NW6       30.13R
POMPANO BEACH  CLEAR     74  45  35 N14       30.14R
PEMBROKE PINES PTCLDY    72  48  42 NW6       30.15R
OPA LOCKA      PTCLDY    72  46  39 NW6       30.14R
MIAMI          MOCLDY    72  48  42 VRB3      30.14R
WEST KENDALL   PTCLDY    70  49  47 N3        30.14R
HOMESTEAD      CLEAR     69  54  59 E2        30.14R

STATION/POSITION SKY/WX   TEMP    WIND        PRES    WAVE   SWELL
                          AIR SEA DIR/SP/G            HT/PER HT/PER
                          (F)     (DEG/KT/KT) (MB)    (FT/S) (FT/S)
PORT EVERGLADES            72     300/  5/  7 1020.1
VIRGINIA KEY               71 72  140/  2/  3 1020.9R




U.S. Dept. of Commerce
NOAA National Weather Service
1325 East West Highway
Silver Spring, MD 20910
E-mail: w-nws.webmaster@noaa.gov
Page last modified: May 16, 2007
NATIONAL WEATHER SERVICE: for Safety, for Work, for Fun - FOR LIFE